Skip Page Navigation
NASA JPL Caltech
NASA Logo - Jet Propulsion Laboratory + View the NASA Portal
+ Center for Near-Earth Object Studies
JPL Home Earth Solar System Stars & Galaxies Technology
JPL Solar System Dynamics
BODIES ORBITS EPHEMERIDES TOOLS PHYSICAL DATA DISCOVERY FAQ SITE MAP
IMPORTANT: The SSD Announcement email list is now available. Major changes are coming in the near future, including possible hostname and/or URL changes. To be notified of such changes, subscribe to this email list.

Please visit this page for more details.


JPL Small-Body Database Browser
Search: [ help ]  
27069 (1998 SK75)
Classification: Main-belt Asteroid          SPK-ID: 2027069
Ephemeris | Orbit Diagram | Orbital Elements | Mission Design | Physical Parameters | Discovery Circumstances | Close-Approach Data ]

[ show orbit diagram ]
Orbital Elements at Epoch 2458600.5 (2019-Apr-27.0) TDB
Reference: JPL 23 (heliocentric ecliptic J2000)
 Element Value Uncertainty (1-sigma)   Units 
e .07539810840825943 3.7223e-08  
a 2.457019508302489 9.6295e-09 au
q 2.27176488505429 9.1392e-08 au
i 4.964193527775042 3.7157e-06 deg
node 131.894732593655 4.992e-05 deg
peri 57.03401413205867 5.6254e-05 deg
M 316.7699724442983 2.6385e-05 deg
tp 2458769.425162564079
(2019-Oct-12.92516256)
0.00010331 TDB
period 1406.731893582795
3.85
8.2698e-06
2.264e-08
d
yr
n .255912304002093 1.5044e-09 deg/d
Q 2.642274131550689 1.0355e-08 au
  Orbit Determination Parameters
   # obs. used (total)      1532  
   data-arc span      8530 days (23.35 yr)  
   first obs. used      1996-01-13  
   last obs. used      2019-05-22  
   planetary ephem.      DE431  
   SB-pert. ephem.      SB431-N16  
   condition code      0  
   norm. resid. RMS      .52987  
   source      ORB  
   producer      Otto Matic  
   solution date      2019-Jul-13 01:01:28  

Additional Information
 Earth MOID = 1.27765 au 
 Jupiter MOID = 2.32129 au 
 T_jup = 3.483 
[ show covariance matrix ]

Ephemeris | Orbit Diagram | Orbital Elements | Mission Design | Physical Parameters | Discovery Circumstances | Close-Approach Data ]

Physical Parameter Table
Parameter Symbol Value Units Sigma Reference Notes
absolute magnitude H 14.5   n/a MPO431812  

27069 (1998 SK75)          Discovered 1998-Sep-21 by Elst, E. W. at La Silla
Reference: 20010804/Numbers.arcLast Updated: 2004-04-19

[ show close-approach data ]
Alternate Designations
 1998 SK75 = 1996 CB1 
Ephemeris | Orbit Diagram | Orbital Elements | Mission Design | Physical Parameters | Discovery Circumstances | Close-Approach Data ]
ABOUT SSD CREDITS/AWARDS PRIVACY/COPYRIGHT GLOSSARY LINKS
FirstGov 2019-Dec-15 21:42 UT
(server date/time)  
NASA Home Page
Site Manager:   Ryan S. Park
Webmaster  Alan B. Chamberlin